GW4822 Weather Reports


Display with metric or nautical units.
time (UTC)temp
F
wind
direction
speed
MPH
gust
MPH
rain 1hr
in
rain 24hr
in
rain mn
in
humidity
%
barometer
mb
20260507064036 41 173 4.0 6.0 0.00 0.16 0.16 93 1019.1
20260507063533 41 175 3.0 7.0 0.00 0.16 0.16 92 1019.2
20260507063030 41 149 0.0 3.0 0.07 0.16 0.16 93 1019.2
20260507062527 41 159 1.0 2.0 0.12 0.16 0.16 93 1019.1
20260507062024 41 143 5.0 6.0 0.05 0.15 0.15 91 1019.0
20260507061522 41 159 1.0 2.0 0.00 0.14 0.14 92 1018.9
20260507061020 41 184 0.0 1.0 0.00 0.14 0.14 92 1019.0
20260507060517 41 188 1.0 2.0 0.07 0.14 0.14 92 1019.1
20260507060014 41 182 0.0 1.0 0.07 0.14 0.14 92 1018.8
20260507055514 41 224 2.0 6.0 0.05 0.13 0.13 91 1019.0
20260507055011 41 130 2.0 6.0 0.12 0.13 0.13 91 1018.9
20260507054507 41 166 2.0 4.0 0.12 0.12 0.12 91 1018.8
20260507054004 42 145 2.0 7.0 0.05 0.11 0.11 91 1018.7
20260507053502 42 168 2.0 4.0 0.00 0.10 0.10 89 1018.7
20260507053000 42 178 2.0 8.0 0.00 0.10 0.10 88 1018.4
20260507052458 42 171 1.0 2.0 0.00 0.10 0.10 90 1018.4
20260507051954 42 151 3.0 4.0 0.00 0.10 0.10 90 1018.4
20260507051452 42 159 2.0 3.0 0.00 0.10 0.10 91 1018.4
20260507050948 42 149 1.0 3.0 0.07 0.10 0.10 91 1018.2
20260507050445 41 131 2.0 4.0 0.00 0.09 0.09 91 1018.3
20260507045942 41 163 2.0 4.0 0.05 0.09 0.09 91 1018.2
20260507045438 42 147 2.0 4.0 0.05 0.09 0.09 89 1018.2
20260507044936 42 142 2.0 2.0 0.00 0.08 0.08 89 1018.3
20260507044432 42 162 1.0 3.0 0.00 0.08 0.08 89 1018.2
20260507043928 41 133 2.0 8.0 0.00 0.08 0.08 89 1018.3
20260507043425 41 161 2.0 4.0 0.00 0.08 0.08 90 1018.2
20260507042921 41 132 3.0 10.0 0.00 0.08 0.08 89 1018.2
20260507042418 41 94 2.0 6.0 0.00 0.08 0.08 90 1018.2
20260507041914 41 126 3.0 8.0 0.00 0.08 0.08 90 1018.0
20260507041411 41 118 5.0 8.0 0.00 0.08 0.08 90 1018.2
20260507040908 42 174 5.0 8.0 0.00 0.08 0.08 91 1017.8
20260507040404 42 138 3.0 9.0 0.07 0.08 0.08 90 1017.9
20260507035900 42 103 4.0 7.0 0.07 0.08 0.08 91 1018.3
20260507035356 42 147 3.0 8.0 0.05 0.07 0.07 90 1018.1
20260507034853 42 155 5.0 8.0 0.12 0.07 0.07 90 1017.9
20260507034350 43 127 3.0 9.0 0.14 0.06 0.06 87 1018.0
20260507033848 43 137 4.0 10.0 0.07 0.05 0.05 87 1017.9
20260507033346 43 233 2.0 7.0 0.05 0.04 0.04 88 1017.9
20260507032842 43 144 5.0 8.0 0.17 0.04 0.04 88 1017.9
20260507032339 43 179 2.0 6.0 0.12 0.03 0.03 87 1017.9
20260507031835 45 219 6.0 11.0 0.00 0.01 0.01 85 1018.0
20260507031332 46 176 6.0 9.0 0.00 0.01 0.01 74 1017.6
20260507030829 46 141 3.0 4.0 0.00 0.01 0.01 73 1017.5
20260507030326 46 178 3.0 7.0 0.00 0.01 0.01 71 1017.3
20260507025823 46 164 4.0 7.0 0.00 0.01 0.01 72 1017.2
20260507025320 47 173 3.0 9.0 0.00 0.01 0.01 70 1017.3
20260507024818 47 147 3.0 9.0 0.00 0.01 0.01 69 1017.4
20260507024315 48 125 4.0 7.0 0.00 0.01 0.01 69 1017.3
20260507023811 48 149 3.0 7.0 0.00 0.01 0.01 71 1017.2
20260507023307 48 157 3.0 10.0 0.00 0.01 0.01 70 1017.3
20260507022805 49 205 5.0 8.0 0.00 0.01 0.01 69 1017.1
20260507022301 48 144 3.0 11.0 0.00 0.01 0.01 71 1017.1
20260507021757 47 150 2.0 10.0 0.00 0.01 0.01 74 1017.1
20260507021253 48 101 7.0 11.0 0.00 0.01 0.01 68 1017.1
20260507020751 47 192 4.0 10.0 0.00 0.01 0.01 70 1017.1
20260507020248 47 180 7.0 9.0 0.00 0.01 0.01 71 1017.0
20260507015745 47 207 2.0 4.0 0.00 0.01 0.01 78 1017.0
20260507015242 46 191 2.0 3.0 0.00 0.01 0.01 80 1017.0
20260507014739 45 200 3.0 4.0 0.07 0.01 0.01 81 1017.0
20260507014235 45 163 1.0 3.0 0.07 0.01 0.01 82 1017.0
20260507013732 45 168 4.0 6.0 0.00 0.00 0.00 81 1017.0
20260507013230 45 189 1.0 3.0 0.00 0.00 0.00 85 1017.2
20260507012727 44 179 3.0 6.0 0.00 0.00 0.00 85 1017.2
20260507012222 44 211 4.0 4.0 0.00 0.00 0.00 86 1017.1
20260507011720 45 191 4.0 8.0 0.00 0.00 0.00 83 1017.2
20260507011216 45 195 7.0 14.0 0.00 0.00 0.00 80 1017.1
20260507010711 45 198 6.0 9.0 0.00 0.00 0.00 82 1017.1
20260507010207 45 201 4.0 10.0 0.00 0.00 0.00 82 1017.0
20260507005705 45 205 4.0 6.0 0.00 0.00 0.00 81 1016.9
20260507005201 45 191 1.0 6.0 0.00 0.00 0.00 80 1017.1
20260507004658 45 208 6.0 8.0 0.00 0.00 0.00 82 1017.0
20260507004155 44 212 4.0 6.0 0.00 0.00 0.00 86 1017.2
20260507003651 44 193 3.0 6.0 0.00 0.00 0.00 87 1016.9
20260507003151 44 236 5.0 8.0 0.00 0.00 0.00 84 1017.1
20260507002648 45 196 3.0 9.0 0.00 0.00 0.00 80 1017.0
20260507002144 45 188 3.0 6.0 0.00 0.00 0.00 80 1016.9
20260507001641 46 202 4.0 6.0 0.00 0.00 0.00 79 1016.7
20260507001139 46 180 6.0 8.0 0.00 0.00 0.00 77 1016.8
20260507000635 46 183 5.0 7.0 0.00 0.00 0.00 77 1016.7
20260507000130 46 215 2.0 4.0 0.00 0.00 0.00 77 1016.8
20260506235628 46 252 4.0 7.0 0.00 0.00 0.00 78 1016.9
20260506235127 46 201 2.0 7.0 0.00 0.00 0.00 80 1016.6
20260506234625 45 200 4.0 7.0 0.00 0.00 0.00 81 1016.7
20260506234122 45 182 3.0 7.0 0.00 0.00 0.00 82 1016.6
20260506233619 45 198 4.0 7.0 0.00 0.00 0.00 82 1016.4
20260506233116 46 226 4.0 8.0 0.00 0.00 0.00 80 1016.8
20260506232612 45 234 4.0 8.0 0.00 0.00 0.00 79 1016.7
20260506232107 45 205 3.0 9.0 0.00 0.00 0.00 81 1016.6
20260506231605 45 170 2.0 8.0 0.00 0.00 0.00 80 1016.7
20260506231103 45 215 4.0 7.0 0.00 0.00 0.00 80 1016.7
20260506230559 45 226 5.0 7.0 0.00 0.00 0.00 81 1016.5
20260506230056 45 262 3.0 7.0 0.00 0.00 0.00 79 1016.6
20260506225553 45 209 4.0 6.0 0.00 0.00 0.00 78 1016.6
20260506225049 45 228 3.0 4.0 0.00 0.00 0.00 80 1016.4
20260506224546 45 240 3.0 8.0 0.00 0.00 0.00 80 1016.5
20260506224043 45 199 2.0 7.0 0.00 0.00 0.00 78 1016.4
20260506223539 46 181 7.0 9.0 0.00 0.00 0.00 76 1016.4
20260506223035 46 270 5.0 7.0 0.00 0.00 0.00 75 1016.4
20260506222532 46 193 7.0 10.0 0.00 0.00 0.00 75 1016.4
20260506222029 46 196 6.0 10.0 0.00 0.00 0.00 75 1016.3
20260506221526 46 248 6.0 11.0 0.00 0.00 0.00 74 1016.1
20260506221024 46 172 7.0 13.0 0.00 0.00 0.00 74 1016.3
20260506220520 46 178 5.0 10.0 0.00 0.00 0.00 73 1016.0
20260506220016 46 184 4.0 10.0 0.00 0.00 0.00 75 1016.2
20260506215513 46 224 6.0 9.0 0.00 0.00 0.00 72 1016.2
20260506215008 48 189 6.0 11.0 0.00 0.00 0.00 70 1016.2
20260506214506 47 192 5.0 9.0 0.00 0.00 0.00 70 1016.1
20260506214003 47 198 9.0 14.0 0.00 0.00 0.00 69 1016.1
20260506213501 48 205 10.0 15.0 0.00 0.00 0.00 67 1016.1
20260506212957 47 209 4.0 9.0 0.00 0.00 0.00 68 1016.1
20260506212453 46 182 8.0 15.0 0.00 0.00 0.00 68 1015.9
20260506211948 46 209 8.0 11.0 0.00 0.00 0.00 67 1015.8
20260506211445 46 160 6.0 11.0 0.00 0.00 0.00 71 1015.8
20260506210942 46 189 11.0 13.0 0.00 0.00 0.00 68 1015.7
20260506210438 46 205 6.0 11.0 0.00 0.00 0.00 72 1015.7
20260506205936 45 191 6.0 14.0 0.00 0.00 0.00 73 1015.7
20260506205432 46 192 4.0 9.0 0.00 0.00 0.00 73 1015.8
20260506204928 45 184 5.0 11.0 0.00 0.00 0.00 75 1015.7
20260506204426 45 238 8.0 11.0 0.00 0.00 0.00 75 1015.6
20260506203923 46 196 3.0 9.0 0.00 0.00 0.00 71 1015.7
20260506203420 45 191 5.0 9.0 0.00 0.00 0.00 74 1015.6
20260506202917 44 195 5.0 9.0 0.00 0.00 0.00 75 1015.6
20260506202414 44 194 8.0 10.0 0.00 0.00 0.00 75 1015.6
20260506201911 45 213 7.0 11.0 0.00 0.00 0.00 75 1015.6
20260506201408 45 224 6.0 9.0 0.00 0.00 0.00 74 1015.5
20260506200904 45 178 4.0 11.0 0.00 0.00 0.00 74 1015.5
20260506200401 45 207 5.0 10.0 0.00 0.00 0.00 75 1015.5
20260506195857 45 184 5.0 11.0 0.00 0.00 0.00 74 1015.2
20260506195355 45 202 6.0 13.0 0.00 0.00 0.00 74 1015.3
20260506194851 46 171 5.0 11.0 0.00 0.00 0.00 74 1015.2
20260506194348 44 189 3.0 11.0 0.00 0.00 0.00 75 1015.2
20260506193845 44 210 9.0 14.0 0.00 0.00 0.00 76 1015.3
20260506193342 44 179 4.0 13.0 0.00 0.00 0.00 76 1015.4
20260506192838 45 180 4.0 9.0 0.00 0.00 0.00 75 1015.4
20260506192335 44 64 6.0 9.0 0.00 0.00 0.00 76 1015.4
20260506191832 44 159 3.0 6.0 0.00 0.00 0.00 76 1015.2
20260506191329 44 170 6.0 8.0 0.00 0.00 0.00 76 1015.3
20260506190826 44 155 2.0 8.0 0.00 0.00 0.00 77 1015.2
20260506190322 44 197 2.0 4.0 0.00 0.00 0.00 78 1015.2
20260506185819 44 196 4.0 4.0 0.00 0.00 0.00 78 1015.2
20260506185316 44 140 4.0 7.0 0.00 0.00 0.00 80 1015.1
20260506184813 43 182 4.0 7.0 0.00 0.00 0.00 80 1015.1
20260506184310 44 202 6.0 8.0 0.00 0.00 0.00 79 1015.2
20260506183807 44 204 3.0 4.0 0.00 0.00 0.00 76 1015.2
20260506183302 44 204 1.0 2.0 0.00 0.00 0.00 76 1015.1
20260506182800 44 192 2.0 4.0 0.00 0.00 0.00 77 1015.1
20260506182257 44 316 4.0 4.0 0.00 0.00 0.00 77 1015.2
20260506181755 44 192 2.0 3.0 0.00 0.00 0.00 77 1015.1
20260506181252 44 259 3.0 3.0 0.00 0.00 0.00 76 1015.2
20260506180749 44 203 2.0 6.0 0.00 0.00 0.00 77 1014.7
20260506180245 43 193 2.0 6.0 0.00 0.00 0.00 78 1014.9
20260506175741 44 222 2.0 3.0 0.00 0.00 0.00 77 1015.0
20260506175238 43 329 3.0 4.0 0.00 0.00 0.00 77 1014.7
20260506174736 43 259 6.0 8.0 0.00 0.00 0.00 78 1014.7
20260506174232 43 214 3.0 7.0 0.00 0.00 0.00 78 1014.7
20260506173731 43 214 4.0 6.0 0.00 0.00 0.00 78 1014.8
20260506173227 43 204 4.0 6.0 0.00 0.00 0.00 78 1014.9
20260506172724 43 193 2.0 6.0 0.00 0.00 0.00 77 1014.8
20260506172221 44 209 3.0 4.0 0.00 0.00 0.00 76 1014.7
20260506171718 43 188 0.0 3.0 0.00 0.00 0.00 75 1014.7
20260506171216 43 148 1.0 3.0 0.00 0.00 0.00 75 1014.8
20260506170713 43 286 2.0 4.0 0.00 0.00 0.00 75 1014.7
20260506170210 43 242 2.0 3.0 0.00 0.00 0.00 75 1014.5
20260506165708 43 186 1.0 2.0 0.00 0.00 0.00 76 1014.5
20260506165204 43 198 1.0 3.0 0.00 0.00 0.00 76 1014.6
20260506164702 43 194 2.0 2.0 0.00 0.00 0.00 76 1014.7
20260506164159 42 189 0.0 1.0 0.00 0.00 0.00 76 1014.3
20260506163655 42 188 0.0 1.0 0.00 0.00 0.00 76 1014.5
20260506163150 42 191 0.0 1.0 0.00 0.00 0.00 76 1014.5
20260506162646 43 178 1.0 1.0 0.00 0.00 0.00 76 1014.3
20260506162144 43 168 0.0 0.0 0.00 0.00 0.00 76 1014.1
20260506161641 42 190 0.0 2.0 0.00 0.00 0.00 76 1014.2
20260506161138 42 215 2.0 2.0 0.00 0.00 0.00 75 1014.2
20260506160636 42 153 0.0 1.0 0.00 0.00 0.00 75 1014.1
20260506160132 42 155 0.0 1.0 0.00 0.00 0.00 75 1014.2
20260506155631 42 158 0.0 1.0 0.00 0.00 0.00 75 1014.3
20260506155128 41 158 0.0 1.0 0.00 0.00 0.00 78 1013.9
20260506153230 41 158 0.0 0.0 0.00 0.00 0.00 78 1014.0
20260506152726 41 158 0.0 0.0 0.00 0.00 0.00 78 1014.2
20260506152224 41 158 0.0 0.0 0.00 0.00 0.00 79 1014.1
20260506151723 41 158 0.0 0.0 0.00 0.00 0.00 79 1014.1
20260506151219 41 173 0.0 0.0 0.00 0.00 0.00 80 1014.0
20260506150715 41 173 0.0 1.0 0.00 0.00 0.00 80 1013.9
20260506150213 41 173 0.0 1.0 0.00 0.00 0.00 80 1013.9
20260506145710 41 160 1.0 1.0 0.00 0.00 0.00 80 1013.9
20260506145206 41 160 0.0 0.0 0.00 0.00 0.00 80 1014.0
20260506144704 41 159 0.0 0.0 0.00 0.00 0.00 81 1013.9
20260506144200 41 159 0.0 0.0 0.00 0.00 0.00 81 1013.8
20260506143658 41 159 0.0 0.0 0.00 0.00 0.00 81 1013.8
20260506143156 41 159 0.0 0.0 0.00 0.00 0.00 82 1013.8
20260506142654 41 159 1.0 1.0 0.00 0.00 0.00 83 1013.7
20260506142152 40 157 1.0 1.0 0.00 0.00 0.00 83 1013.8
20260506141649 40 174 0.0 0.0 0.00 0.00 0.00 85 1013.8
20260506141147 40 176 0.0 2.0 0.00 0.00 0.00 85 1013.7
20260506140644 40 152 2.0 2.0 0.00 0.00 0.00 85 1013.7
20260506140142 40 184 2.0 3.0 0.00 0.00 0.00 86 1013.5
20260506135638 40 170 1.0 2.0 0.00 0.00 0.00 87 1013.6
20260506135135 40 175 2.0 6.0 0.00 0.00 0.00 87 1013.7
20260506134631 40 167 4.0 7.0 0.00 0.00 0.00 86 1013.6
20260506134127 40 137 2.0 7.0 0.00 0.00 0.00 86 1013.7
20260506133625 40 188 4.0 7.0 0.00 0.00 0.00 85 1013.8
20260506133121 40 135 4.0 10.0 0.00 0.00 0.00 85 1013.7
20260506132619 40 203 4.0 4.0 0.00 0.00 0.00 84 1013.7
20260506132116 40 155 4.0 11.0 0.00 0.00 0.00 84 1013.6
20260506131613 40 124 2.0 4.0 0.00 0.00 0.00 84 1013.7
20260506131109 40 169 0.0 3.0 0.00 0.00 0.00 84 1013.6
20260506130607 40 145 3.0 9.0 0.00 0.00 0.00 84 1013.5
20260506130104 41 196 2.0 3.0 0.00 0.00 0.00 84 1013.6
20260506125602 41 197 4.0 8.0 0.00 0.00 0.00 83 1013.2
20260506125059 41 178 2.0 6.0 0.00 0.00 0.00 84 1013.4
20260506124557 41 178 3.0 4.0 0.00 0.00 0.00 82 1013.4
20260506124055 41 204 4.0 6.0 0.00 0.00 0.00 81 1013.5
20260506123552 41 179 1.0 4.0 0.00 0.00 0.00 81 1013.5
20260506123051 41 171 1.0 6.0 0.00 0.00 0.00 82 1013.5
20260506122546 41 178 4.0 4.0 0.00 0.00 0.00 83 1013.4
20260506122045 41 193 2.0 7.0 0.00 0.00 0.00 83 1013.4
20260506121542 41 181 3.0 8.0 0.00 0.00 0.00 81 1013.4
20260506121038 41 191 2.0 6.0 0.00 0.00 0.00 81 1013.3
20260506120536 41 173 5.0 7.0 0.00 0.00 0.00 81 1013.2
20260506120033 41 166 3.0 3.0 0.00 0.00 0.00 81 1013.3
20260506115531 41 159 2.0 6.0 0.00 0.00 0.00 80 1013.3
20260506115030 41 145 7.0 10.0 0.00 0.00 0.00 81 1013.4
20260506114526 41 194 5.0 9.0 0.00 0.00 0.00 81 1013.2
20260506114025 41 186 7.0 10.0 0.00 0.00 0.00 80 1013.1
20260506113522 41 204 5.0 9.0 0.00 0.00 0.00 80 1013.2
20260506113020 41 190 5.0 8.0 0.00 0.00 0.00 80 1013.3
20260506112516 41 153 4.0 7.0 0.00 0.00 0.00 80 1013.2
20260506112014 41 196 4.0 7.0 0.00 0.00 0.00 79 1013.4
20260506111512 41 197 3.0 8.0 0.00 0.00 0.00 79 1013.5
20260506111008 41 198 5.0 8.0 0.00 0.00 0.00 80 1013.4
20260506110506 41 193 4.0 7.0 0.00 0.00 0.00 79 1013.5
20260506110003 41 113 6.0 10.0 0.00 0.00 0.00 80 1013.2
20260506105459 41 195 5.0 9.0 0.00 0.00 0.00 79 1013.2
20260506104956 42 206 5.0 14.0 0.00 0.00 0.00 77 1013.1
20260506104454 41 148 5.0 9.0 0.00 0.00 0.00 77 1013.0
20260506103952 41 188 5.0 8.0 0.00 0.00 0.00 78 1013.2
20260506103449 41 199 5.0 13.0 0.00 0.00 0.00 77 1013.1
20260506102946 41 158 4.0 7.0 0.00 0.00 0.00 77 1012.9
20260506102444 41 171 4.0 7.0 0.00 0.00 0.00 77 1013.1
20260506101941 42 186 4.0 7.0 0.00 0.00 0.00 75 1013.0
20260506101437 42 202 3.0 6.0 0.00 0.00 0.00 75 1013.0
20260506100935 42 156 2.0 9.0 0.00 0.00 0.00 74 1013.0
20260506100433 42 170 2.0 4.0 0.00 0.00 0.00 76 1013.1
20260506095931 42 193 2.0 6.0 0.00 0.00 0.00 76 1013.0
20260506095429 42 209 6.0 10.0 0.00 0.00 0.00 75 1013.0
20260506094925 42 168 3.0 4.0 0.00 0.00 0.00 74 1012.9
20260506094424 42 132 4.0 6.0 0.00 0.00 0.00 75 1012.9
20260506093921 42 205 4.0 7.0 0.00 0.00 0.00 76 1012.9
20260506093419 42 157 2.0 7.0 0.00 0.00 0.00 76 1012.7
20260506092916 42 109 5.0 8.0 0.00 0.00 0.00 75 1012.6
20260506092414 42 182 2.0 9.0 0.00 0.00 0.00 73 1012.7
20260506091910 42 162 5.0 9.0 0.00 0.00 0.00 74 1012.6
20260506091408 42 186 3.0 8.0 0.00 0.00 0.00 74 1012.8
20260506090905 42 149 8.0 14.0 0.00 0.00 0.00 74 1012.5
20260506090403 42 175 3.0 9.0 0.00 0.00 0.00 72 1012.4
20260506085859 42 182 2.0 9.0 0.00 0.00 0.00 73 1012.3
20260506085356 43 144 6.0 11.0 0.00 0.00 0.00 70 1012.3
20260506084852 44 117 2.0 7.0 0.00 0.00 0.00 68 1012.4
20260506084349 44 159 7.0 11.0 0.00 0.00 0.00 66 1012.2
20260506083846 43 190 8.0 13.0 0.00 0.00 0.00 67 1012.3
20260506083344 43 157 2.0 9.0 0.00 0.00 0.00 69 1012.4
20260506082841 44 186 4.0 10.0 0.00 0.00 0.00 69 1012.1
20260506082337 44 142 3.0 8.0 0.00 0.00 0.00 67 1012.0
20260506081833 44 164 3.0 14.0 0.00 0.00 0.00 67 1012.1
20260506081331 44 118 6.0 9.0 0.00 0.00 0.00 65 1011.8
20260506080829 44 196 4.0 9.0 0.00 0.00 0.00 65 1011.8
20260506080325 44 172 3.0 11.0 0.00 0.00 0.00 65 1011.7
20260506073310 45 177 6.0 9.0 0.00 0.00 0.00 64 1011.4
20260506072806 44 218 6.0 9.0 0.00 0.00 0.00 63 1011.5
20260506072306 44 174 2.0 8.0 0.00 0.00 0.00 64 1011.4
20260506071802 45 152 5.0 11.0 0.00 0.00 0.00 63 1011.4
20260506071300 45 192 4.0 6.0 0.00 0.00 0.00 63 1011.4
20260506070756 44 140 3.0 6.0 0.00 0.00 0.00 64 1011.4
20260506070253 44 189 2.0 3.0 0.00 0.00 0.00 67 1011.5